• Currently

    Reported at Covington / Cincinnati, Cincinnati / Northern Kentucky International Airport, KY
    9:52 AM EST SAT MAR 25 2017
  • 66°F19°C
  • Mostly Cloudy
    Mostly Cloudy
  • Feels Like:66°F19°CDew Point:50°F10°CHumidity:56% Winds:S 14 mph 23 kph
    Pressure:30.12 in1020 hPaVisibility:10.00 miles16090.00 meters
Time Weather Temp Dew Point
Humidity Winds Visibility Pressure Precipitation
1 hr 24 hr
Saturday, March 25
11:14 11:14 Sunny Sunny 68°F20°C 48°F9°C 49% S 15 mphS 24 kph 10.0 miles16.1 km 30.12 in1020 hPa 0.00 in0.00 mm --
10:54 10:54 Sunny Sunny 64°F18°C 46°F8°C 52% S 8 mphS 13 kph 10.0 miles16.1 km 30.12 in1020 hPa 0.00 in0.00 mm --
10:33 10:33 Sunny Sunny 64°F18°C 46°F8°C 52% S 12 mphS 19 kph 10.0 miles16.1 km 30.12 in1020 hPa 0.00 in0.00 mm --
10:14 10:14 Sunny Sunny 63°F17°C 46°F8°C 56% SSE 9 mphSSE 15 kph 10.0 miles16.1 km 30.12 in1020 hPa 0.00 in0.00 mm --
09:54 09:54 Sunny Sunny 63°F17°C 46°F8°C 56% SSE 10 mphSSE 17 kph 10.0 miles16.1 km 30.12 in1020 hPa 0.00 in0.00 mm --
09:33 09:33 Sunny Sunny 61°F16°C 46°F8°C 59% SSE 9 mphSSE 15 kph 10.0 miles16.1 km 30.12 in1020 hPa 0.00 in0.00 mm --
09:14 09:14 Sunny Sunny 61°F16°C 46°F8°C 59% SSE 8 mphSSE 13 kph 10.0 miles16.1 km 30.12 in1020 hPa 0.00 in0.00 mm --
08:54 08:54 Sunny Sunny 59°F15°C 46°F8°C 63% SE 7 mphSE 11 kph 10.0 miles16.1 km 30.12 in1020 hPa 0.00 in0.00 mm --
08:33 08:33 Sunny Sunny 59°F15°C 46°F8°C 63% SE 7 mphSE 11 kph 10.0 miles16.1 km 30.12 in1020 hPa 0.00 in0.00 mm --
08:14 08:14 Sunny Sunny 59°F15°C 46°F8°C 63% SE 5 mphSE 7 kph 10.0 miles16.1 km 30.12 in1020 hPa 0.00 in0.00 mm --
07:53 07:53 Sunny Sunny 59°F15°C 46°F8°C 63% SE 6 mphSE 9 kph 10.0 miles16.1 km 30.12 in1020 hPa 0.00 in0.00 mm --
07:34 07:34 Clear Clear 59°F15°C 46°F8°C 63% SE 7 mphSE 11 kph 10.0 miles16.1 km 30.12 in1020 hPa 0.00 in0.00 mm --
07:14 07:14 Clear Clear 59°F15°C 46°F8°C 63% SE 3 mphSE 6 kph 10.0 miles16.1 km 30.12 in1020 hPa 0.00 in0.00 mm --
06:54 06:54 Mostly Cloudy Mostly Cloudy 61°F16°C 46°F8°C 59% SSE 7 mphSSE 11 kph 10.0 miles16.1 km 30.12 in1020 hPa 0.00 in0.00 mm --
06:34 06:34 Cloudy Cloudy 61°F16°C 46°F8°C 59% SSE 6 mphSSE 9 kph 10.0 miles16.1 km 30.12 in1020 hPa 0.00 in0.00 mm --
06:13 06:13 Partly Cloudy Partly Cloudy 61°F16°C 46°F8°C 59% SSE 7 mphSSE 11 kph 10.0 miles16.1 km 30.09 in1019 hPa 0.00 in0.00 mm --
05:54 05:54 Mostly Cloudy Mostly Cloudy 61°F16°C 46°F8°C 59% SSE 7 mphSSE 11 kph 10.0 miles16.1 km 30.09 in1019 hPa 0.00 in0.00 mm --
05:34 05:34 Mostly Cloudy Mostly Cloudy 61°F16°C 46°F8°C 59% SSE 5 mphSSE 7 kph 10.0 miles16.1 km 30.09 in1019 hPa 0.00 in0.00 mm --
05:13 05:13 Partly Cloudy Partly Cloudy 61°F16°C 46°F8°C 59% SE 5 mphSE 7 kph 10.0 miles16.1 km 30.09 in1019 hPa 0.00 in0.00 mm --
04:54 04:54 Clear Clear 61°F16°C 48°F9°C 63% SSE 6 mphSSE 9 kph 10.0 miles16.1 km 30.09 in1019 hPa 0.00 in0.00 mm --
04:34 04:34 Clear Clear 61°F16°C 48°F9°C 63% SE 5 mphSE 7 kph 10.0 miles16.1 km 30.09 in1019 hPa 0.00 in0.00 mm --
04:13 04:13 Clear Clear 61°F16°C 48°F9°C 63% SE 5 mphSE 7 kph 10.0 miles16.1 km 30.09 in1019 hPa 0.00 in0.00 mm --
03:54 03:54 Clear Clear 61°F16°C 50°F10°C 68% SE 6 mphSE 9 kph 10.0 miles16.1 km 30.09 in1019 hPa 0.00 in0.00 mm --
03:34 03:34 Clear Clear 61°F16°C 50°F10°C 68% SE 3 mphSE 6 kph 10.0 miles16.1 km 30.12 in1020 hPa 0.00 in0.00 mm --
03:13 03:13 Clear Clear 61°F16°C 50°F10°C 68% SE 3 mphSE 6 kph 10.0 miles16.1 km 30.12 in1020 hPa 0.00 in0.00 mm --
02:54 02:54 Clear Clear 59°F15°C 50°F10°C 72% ESE 5 mphESE 7 kph 10.0 miles16.1 km 30.12 in1020 hPa 0.00 in0.00 mm --
02:33 02:33 Clear Clear 61°F16°C 50°F10°C 68% SE 3 mphSE 6 kph 10.0 miles16.1 km 30.12 in1020 hPa 0.00 in0.00 mm --
02:13 02:13 Clear Clear 63°F17°C 50°F10°C 64% SSE 3 mphSSE 6 kph 10.0 miles16.1 km 30.12 in1020 hPa 0.00 in0.00 mm --
01:54 01:54 Mostly Cloudy Mostly Cloudy 63°F17°C 50°F10°C 64% SSE 5 mphSSE 7 kph 10.0 miles16.1 km 30.12 in1020 hPa 0.00 in0.00 mm --
01:33 01:33 Cloudy Cloudy 63°F17°C 50°F10°C 64% S 6 mphS 9 kph 10.0 miles16.1 km 30.15 in1021 hPa 0.00 in0.00 mm --
01:14 01:14 Partly Cloudy Partly Cloudy 61°F16°C 50°F10°C 68% SSE 3 mphSSE 6 kph 10.0 miles16.1 km 30.15 in1021 hPa 0.00 in0.00 mm --
00:54 00:54 Partly Cloudy Partly Cloudy 63°F17°C 50°F10°C 64% S 3 mphS 6 kph 10.0 miles16.1 km 30.15 in1021 hPa 0.00 in0.00 mm --
00:33 00:33 Partly Cloudy Partly Cloudy 63°F17°C 50°F10°C 64% SSE 3 mphSSE 6 kph 10.0 miles16.1 km 30.15 in1021 hPa 0.00 in0.00 mm --
00:14 00:14 Partly Cloudy Partly Cloudy 61°F16°C 50°F10°C 68% S 3 mphS 6 kph 10.0 miles16.1 km 30.15 in1021 hPa 0.00 in0.00 mm --